Regional Weather Roundup
Issued by NWS

Home | Current Version | Previous Version | Text Only | Print | Product List | Glossary Off
Versions: 1 2 3 4 5 6 7 8 9 10 11 12 13 14 15 16 17 18 19 20 21 22 23 24 25 26 27 28 29 30 31 32 33 34 35 36 37 38 39 40 41 42 43 44 45 46 47 48 49 50

000
ASUS45 KTFX 280319
RWRMT
MONTANA HOURLY WEATHER ROUNDUP
NATIONAL WEATHER SERVICE GREAT FALLS MT
919 PM MDT FRI MAR 27 2015

NOTE: "FAIR" INDICATES FEW OR NO CLOUDS BELOW 12000 FEET WITH NO
SIGNIFICANT WEATHER AND/OR OBSTRUCTIONS TO VISIBILITY.

* THESE STATIONS ARE NOT UNDER NWS QUALITY CONTROL. THEY DO NOT
   REPORT WEATHER SUCH AS PRECIPITATION OR FOG.

MTZ001>007-043-280400-
WEST OF THE DIVIDE
CITY           SKY/WX    TMP DP  RH WIND       PRES   REMARKS
KALISPELL      CLEAR     52  43  72 CALM      29.89F
MISSOULA       CLEAR     55  41  59 N7        29.94F
BUTTE          CLEAR     52  32  47 S6        30.07R
MULLAN PASS    FAIR      52  36  55 W8        30.03F
* ESSEX        N/A       45  37  74 SE1        N/A
* EUREKA APT   PTCLDY    64  39  40 E5        29.89F
* HAMILTON APT CLEAR     57  39  51 S3        29.97S VSB 2
* LIBBY APT    CLEAR     55  43  64 CALM      29.89S
* LINCOLN      N/A       57  35  44 W2G7       N/A
* LOOKOUT PASS N/A       52  39  61 N/A        N/A
* POLSON       N/A       56  43  62 N/A        N/A
* RONAN APT    CLEAR     61  46  58 N/A        N/A
* SEELEY LAKE  N/A       53  37  55 NE1G7      N/A
* THOMP F APT  CLEAR     51  31  46 N3         N/A
$$

MTZ008-052>055-280400-
SOUTHWEST MONTANA
CITY           SKY/WX    TMP DP  RH WIND       PRES   REMARKS
BOZEMAN        MOCLDY    61  34  36 SW6       30.01R
DILLON         CLEAR     52  27  38 SE9       30.04S
* W YELLOWSTON CLEAR     43  30  60 N/A        N/A
* THREE FORKS  PTCLDY    61  36  39 N/A        N/A
* TWIN BRIDGES CLEAR     55  25  31 N/A        N/A
* BOULDER HILL N/A       54  25  33 S2         N/A
* HOMESTAKE PS N/A       51  29  43 W1         N/A
* MONIDA PASS  N/A       51  31  46 SE11       N/A
* RAYNOLDS PAS N/A       43  25  49 SE12       N/A
* WHITEHALL    N/A       59  28  31 NW6G11     N/A
* WISE RIVER   N/A       54  31  42 SW5G13     N/A
$$

MTZ009>010-012-014-046-048-049-054-280400-
EAST SLOPES AND CENTRAL MONTANA
CITY           SKY/WX    TMP DP  RH WIND       PRES   REMARKS
CUT BANK       CLOUDY    57  37  47 W12       29.88F
GREAT FALLS    MOCLDY    54  32  43 W9        29.92S
HELENA         MOCLDY    64  32  30 SW7       29.97S
MALMSTROM AFB  PTCLDY    52  34  50 SW9       29.91S
* CONRAD       MOCLDY    57  30  36 S5         N/A
* DEARBORN     N/A       65  34  32 SE2G7      N/A
* EAST GLACIER N/A       55  38  53 W9         N/A
* MONARCH      N/A       53  21  29 SW10       N/A
* PENDROY      N/A       57  28  33 W4         N/A
* ROGERS PASS  N/A       58  33  39 SE6G19     N/A
* SAINT MARY   N/A       54  37  53 S3G10      N/A
* WHITE SULPH  N/A       52  30  43 NE2G7      N/A
$$

MTZ011-013-016-021-035-040-045-047-050-051-280400-
NORTH CENTRAL MONTANA
CITY           SKY/WX    TMP DP  RH WIND       PRES   REMARKS
HAVRE          PTCLDY    52  36  55 S10       29.85S
LEWISTOWN      CLEAR     50  28  43 W8        29.96R
* N BAR RANCH  CLEAR     50  27  41 NW6       29.99R
* CHINOOK      PTCLDY    54  36  51 CALM      29.85S
* FORT BENTON  CLEAR     61  28  29 S3        29.89S
* MALTA APT    MOCLDY    54  34  47 N/A        N/A
* CHESTER      N/A       56  33  42 NE1        N/A
* DENTON       N/A       54  26  34 NW5G11     N/A
* GEYSER       N/A       49  26  41 SW4G11     N/A
* JUDITH GAP   N/A       54  26  34 N4G9       N/A
* LOMA         N/A       63  27  26 W6         N/A
$$

MTZ017>020-022>027-061-062-280400-
NORTHEAST MONTANA
CITY           SKY/WX    TMP DP  RH WIND       PRES   REMARKS
GLASGOW        MOCLDY    57  34  42 SW7       29.85S
GLENDIVE       MOCLDY    46  36  68 N6        29.91R
JORDAN         PTCLDY    48  36  63 CALM      29.89R
SIDNEY         PTCLDY    46  36  68 CALM      29.90R
WOLF POINT     PTCLDY    46  37  71 CALM      29.87R
* BEAVER HILL  N/A       51  36  57 E8         N/A
* CIRCLE       N/A       52  37  57 N/A        N/A
* LINDSAY DVD  N/A       49  36  61 W3         N/A
* NAVAJO       N/A       45  39  80 E8         N/A
* PLENTYWOOD A PTCLDY    45  39  80 NE9       29.90R
* POPLAR APT   PTCLDY    52  39  61 E8        29.88R
* SACO         N/A       47  34  61 N/A        N/A
$$

MTZ028>042-056>058-280400-
SOUTHCENTRAL AND SOUTHEAST MONTANA
CITY           SKY/WX    TMP DP  RH WIND       PRES   REMARKS
BAKER          PTCLDY    50  34  54 W5        29.92S
BILLINGS       FAIR      61  28  29 NW12      29.94R
LIVINGSTON     MOCLDY    64  32  30 SW28G35   29.98R
MILES CITY     MOCLDY    59  34  39 NE7       29.90S
* BIG TIMBER A PTCLDY    59  32  36 SW8       29.99R
* FORSYTH APT  PTCLDY    54  30  40 SE3       29.91R
* LAUREL APT   CLEAR     59  30  33 NW5        N/A
* ROUNDUP APT  CLEAR     61  25  25 N/A        N/A
* ALZADA       N/A       56  34  44 NW1        N/A
* HYSHAM       N/A       59  24  26 N/A        N/A
* LAME DEER    N/A       56  29  36 NE4        N/A
* REED POINT   N/A       54  30  40 NW1        N/A
* ROSCOE HILL  N/A       59  16  18 SW7G16     N/A
$$

REGIONAL REPORTS...DAKOTAS
CITY           SKY/WX    TMP DP  RH WIND       PRES   REMARKS
WILLISTON      CLEAR     43  36  76 CALM      29.91R
DICKINSON      CLOUDY    43  32  65 E8        29.90S
BEACH          CLEAR     45  37  74 S3        29.92R
CROSBY         CLEAR     39  39 100 NE9       29.92F WCI  33
TIOGA          CLEAR     34  34 100 NE6       29.94S WCI  29
WATFORD CITY   FAIR      41  36  82 E8        29.90R
BISMARCK       PTCLDY    36  30  79 NE7       29.94R WCI  30
GRAND FORKS    CLOUDY    30  23  75 S9        30.10R WCI  22
FARGO          CLOUDY    28  23  81 S7        30.11S WCI  21
BUFFALO SD     MOCLDY    54  34  47 N10       29.87R
RAPID CITY     PTCLDY    45  34  65 NW10      29.94R
$$

REGIONAL REPORTS...WYOMING/IDAHO/WASHINGTON
CITY           SKY/WX    TMP DP  RH WIND       PRES   REMARKS
GILLETTE       PTCLDY    43  34  71 S7        29.99S
SHERIDAN       CLEAR     59  28  31 W14       29.97S
CODY           PTCLDY    61  28  29 W10       30.07R
YELLOWSTONE LA CLEAR     34  27  76 NW3       30.26R
SALMON         PTCLDY    54  34  47 CALM      30.00R
MULLAN PASS    FAIR      52  36  55 W8        30.03S
SAND POINT     PTCLDY    52  45  77 CALM      29.89S
SPOKANE        PTCLDY    59  48  67 SW5       29.89F
$$

REGIONAL REPORTS...ALBERTA
CITY           SKY/WX    TMP DP  RH WIND       PRES   REMARKS
LETHBRIDGE     PTCLDY    59  37  44 SW16      29.80F
MEDICINE HAT   MOCLDY    50  36  59 S3        29.77F
EDMONTON       MOCLDY    43  39  86 SE9       29.62F
WATERTON GATE  N/A       54  36  51 SW8        N/A
CARDSTON       N/A       54  37  53 SW3        N/A
MILK RIVER     N/A       61  39  44 W15G21     N/A
$$

REGIONAL REPORTS...SASKATCHEWAN
CITY           SKY/WX    TMP DP  RH WIND       PRES   REMARKS
SWIFT CURRENT  CLEAR     46  37  71 SE13      29.82F
REGINA         MOCLDY    36  34  92 SE9       29.92R WCI  29
VAL MARIE      N/A       45  36  71 NE3        N/A
ASSINIBOIA     N/A       41  37  86 SE8        N/A

$$



USA.gov is the U.S. government's official web portal to all federal, state and local government web resources and services.